Location: Debden
(51.9667°N, 0.2667°E)
Time: 20:43:33
(UTC+00:00)

Daily predictions for brighter satellites

Satellite Brightness Start Highest point End
(mag) Time Altitude Azimuth Time Altitude Azimuth Time Altitude Azimuth
Cosmos-2242 4.3 17:01:52 10° NNE 17:05:08 20° ENE 17:08:21 10° ESE
Helios 1A Rocket 3.6 17:01:12 10° S 17:05:11 61° WSW 17:09:14 10° NNW
Starlink C 3.5 17:02:32 10° SW 17:05:30 47° SSE 17:08:29 10° E
COBE Rocket 4.0 17:00:32 10° NNE 17:05:42 74° ESE 17:10:52 10° S
Starlink E 3.4 17:04:11 10° SW 17:07:10 48° SSE 17:10:09 10° E
Cosmos 1241 Rocket 4.4 17:02:19 10° NW 17:08:34 79° NE 17:14:49 10° SE
Starlink J 3.4 17:05:50 10° SW 17:08:49 49° SSE 17:11:49 10° E
Starlink V 3.3 17:07:28 10° SW 17:10:27 50° SSE 17:13:27 10° E
USA 234 3.9 17:04:03 10° SE 17:10:30 62° SW 17:17:00 10° WNW
YAOGAN 1 3.7 17:07:47 10° ESE 17:11:06 22° ENE 17:14:27 10° N
Cosmos 2184 Rocket 4.0 17:05:48 10° S 17:11:54 69° E 17:18:02 10° NNE
Starlink H 3.3 17:09:08 10° SW 17:12:08 51° SSE 17:15:08 10° ENE
Starlink F 3.3 17:10:47 10° SW 17:13:48 53° SSE 17:16:49 10° ENE
COSMOS 2487 4.3 17:11:39 10° WSW 17:14:43 29° WNW 17:17:49 10° N
Starlink G 3.2 17:12:27 10° SW 17:15:28 54° SSE 17:18:26 10° ENE
Cosmos 1937 Rocket 4.3 17:11:23 10° SW 17:16:31 52° WNW 17:21:44 10° NNE
Starlink L 3.2 17:14:06 10° SW 17:17:08 55° SSE 17:20:03 11° ENE
Starlink A 3.2 17:15:46 10° SW 17:18:48 56° SSE 17:21:40 11° ENE
Cosmos 2154 Rocket 4.2 17:14:19 10° SSE 17:20:22 53° E 17:26:24 10° NNE
Starlink R 3.2 17:17:27 10° WSW 17:20:30 58° SSE 17:23:18 12° ENE
Cosmos 2058 Rocket 4.3 17:16:35 10° NNW 17:20:47 47° W 17:24:58 10° SSW
Cosmos 1242 Rocket 2.6 17:17:52 10° S 17:21:19 57° E 17:24:52 10° NNE
ATLAS CENTAUR R/B 2.6 17:18:33 10° NNW 17:22:03 24° NNE 17:25:06 11° ENE
Starlink K 3.1 17:19:06 10° WSW 17:22:09 59° SSE 17:24:53 12° ENE
Cosmos 1674 3.4 17:18:39 10° SSW 17:22:17 54° WNW 17:25:58 10° N
Okean 1-7 Rocket 4.2 17:18:07 10° SSW 17:22:27 60° WNW 17:26:52 10° N
Starlink M 3.1 17:20:44 10° WSW 17:23:47 60° SSE 17:26:28 13° E
Cosmos 2082 Rocket 4.3 17:23:01 10° WNW 17:26:14 15° NNW 17:29:27 10° NNE
Cosmos 2150 Rocket 4.0 17:22:31 10° SSW 17:27:41 88° ESE 17:32:52 10° NNE
Cosmos 1602 Rocket 3.7 17:24:00 10° S 17:28:15 53° E 17:32:30 10° NNE
CZ-4 R/B 1.9 17:28:28 10° SE 17:32:14 37° ENE 17:36:04 10° N
SMAP 3.5 17:28:07 10° S 17:32:44 66° WSW 17:37:24 10° NNW
Cosmos 1300 2.8 17:28:58 10° NNW 17:32:49 84° W 17:36:38 10° S
Cosmos 2237 Rocket 2.1 17:27:26 10° NNW 17:33:07 78° ENE 17:38:45 10° SE
Cosmos 1610 Rocket 4.4 17:27:33 10° S 17:33:38 68° E 17:39:46 10° NNE
ATLAS CENTAUR R/B 3.8 17:28:38 10° WSW 17:34:02 89° SSE 17:48:22 12° ENE
Cosmos 1689 Rocket 4.1 17:34:23 10° N 17:36:59 28° WNW 17:39:35 10° SW
COSMO-SKYMED 1 3.3 17:33:08 10° NNE 17:37:05 32° E 17:41:00 10° SSE
Cosmos 1125 Rocket 3.5 17:32:48 10° S 17:37:56 66° ESE 17:43:08 10° NNE
YAOGAN 6 2.6 17:34:30 10° SSE 17:38:08 60° ENE 17:41:45 10° N
Cosmos 2333 Rocket 3.7 17:33:16 10° NW 17:38:38 42° WSW 17:43:56 10° S
NOSS 2-1 (E) 4.3 17:34:07 10° NW 17:39:08 74° NE 17:46:10 10° SE
Cosmos 2074 Rocket 4.2 17:33:07 10° SSW 17:39:25 78° W 17:45:45 10° N
CZ-2D R/B 4.2 17:37:26 10° ESE 17:40:40 26° ENE 17:43:55 10° N
Cosmos 1626 2.0 17:37:19 10° S 17:41:00 81° ESE 17:44:44 10° NNE
ADEOS Rocket 4.4 17:38:17 10° NE 17:43:06 21° E 17:48:13 10° SE
NOAA 12 4.2 17:38:13 10° SSE 17:43:27 81° WSW 17:48:45 10° NNW
NOSS 0 Rocket 4.4 17:39:00 10° NW 17:45:11 66° WSW 17:51:19 10° SSE
Cosmos 1758 Rocket 4.0 17:41:34 10° SSE 17:45:30 36° E 17:49:30 10° NNE
CZ-4 R/B 4.5 17:42:38 10° SSE 17:46:40 56° ENE 17:50:43 10° N
CSL-04 Rocket 3.9 17:41:55 10° SE 17:47:11 48° ENE 17:52:30 10° N
Cosmos 1455 2.8 17:44:16 10° N 17:47:47 33° ENE 17:51:15 10° SE
Envisat 3.1 17:43:00 10° SSE 17:48:06 80° WSW 17:53:13 10° NNW
ATLAS 5 CENTAUR R/B 2.7 17:45:20 10° W 17:49:33 40° NNW 17:53:53 12° NE
CZ-4B R/B 4.1 17:48:02 10° NNW 17:49:44 14° WNW 17:51:26 10° W
Cosmos 1626 Rocket 3.7 17:45:50 10° SSW 17:50:10 78° W 17:54:31 10° N
ERBS 3.5 17:51:36 10° SSW 17:54:27 26° SE 17:55:37 21° ESE
SL-16 R/B 2.4 17:49:46 10° NNW 17:55:21 52° NE 18:00:52 10° SE
Meteor 1-24 Rocket 4.2 17:50:48 10° SSW 17:56:03 61° WNW 18:01:29 10° N
Cosmos 1271 Rocket 3.7 17:52:55 10° SSW 17:56:32 46° WNW 18:00:12 10° N
Starlink AS 2.6 17:53:38 10° WSW 17:56:34 86° SSE 17:57:52 30° ENE
Starlink BA 2.6 17:53:53 10° WSW 17:56:49 87° S 17:58:06 30° ENE
Starlink AU 2.6 17:54:07 10° WSW 17:57:02 87° S 17:58:19 30° ENE
Starlink AQ 2.6 17:54:18 10° WSW 17:57:15 87° S 17:58:33 30° ENE
Cosmos 1269 Rocket 4.3 17:51:57 10° NNW 17:57:15 75° WSW 18:02:31 10° SSE
Starlink AT 2.6 17:54:21 10° WSW 17:57:16 87° S 17:58:33 31° ENE
Starlink BB 2.6 17:54:33 10° WSW 17:57:29 87° SSE 17:58:45 31° ENE
Nadezhda 3 Rocket 4.3 17:51:19 10° NNW 17:57:34 71° W 18:03:51 10° S
Starlink BC 2.6 17:54:47 10° WSW 17:57:43 87° SSE 17:58:58 31° ENE
CZ-4C R/B 3.9 17:51:00 10° NW 17:57:51 50° WSW 18:05:38 10° SSE
Starlink BK 2.6 17:55:01 10° WSW 17:57:56 87° SSE 17:59:11 31° ENE
Starlink AY 2.6 17:55:14 10° WSW 17:58:11 88° SSE 17:59:24 31° ENE
Starlink AW 2.6 17:55:28 10° WSW 17:58:24 88° S 17:59:37 31° ENE
Starlink BJ 2.6 17:55:41 10° WSW 17:58:37 88° SSE 17:59:50 32° ENE
Starlink AV 2.6 17:55:54 10° WSW 17:58:50 88° S 18:00:03 32° ENE
Starlink BD 2.6 17:56:08 10° WSW 17:59:04 88° S 18:00:16 32° ENE
Starlink BE 2.6 17:56:21 10° WSW 17:59:18 88° S 18:00:32 32° ENE
Okean-O 3.0 17:54:56 10° S 17:59:21 70° WSW 18:03:48 10° NNW
Starlink BM 2.6 17:56:36 10° WSW 17:59:32 89° SSE 18:00:43 33° ENE
Starlink AX 2.6 17:56:49 10° WSW 17:59:45 89° SSE 18:00:55 33° ENE
Starlink BH 2.6 17:57:02 10° WSW 17:59:58 89° SSW 18:01:09 33° ENE
Starlink AZ 2.6 17:57:16 10° WSW 18:00:12 89° SE 18:01:21 33° ENE
Starlink BG 2.6 17:57:29 10° WSW 18:00:25 89° SSE 18:01:34 33° ENE
Starlink BF 2.6 17:57:42 10° WSW 18:00:38 89° SSE 18:01:47 34° ENE
Starlink BL 2.6 17:57:55 10° WSW 18:00:52 89° SSE 18:02:02 33° ENE
Starlink AH 2.6 17:58:10 10° WSW 18:01:05 89° SSW 18:02:13 34° ENE
Starlink AC 2.6 17:58:24 10° WSW 18:01:20 90° ESE 18:02:26 34° ENE
Starlink X 2.6 17:58:36 10° WSW 18:01:32 90° S 18:02:39 35° ENE
Cosmos 1340 Rocket 3.7 17:57:50 10° NNW 18:01:42 53° W 18:05:34 10° S
Starlink AE 2.6 17:58:47 10° WSW 18:01:46 90° ENE 18:02:54 34° ENE
Starlink Z 2.6 17:59:04 10° WSW 18:02:01 89° ENE 18:03:05 35° ENE
Starlink AK 2.6 17:59:17 10° WSW 18:02:13 90° NW 18:03:18 35° ENE
Starlink AL 2.6 17:59:30 10° WSW 18:02:27 90° NNW 18:03:31 35° ENE
Starlink AD 2.6 17:59:43 10° WSW 18:02:40 89° NNW 18:03:44 36° ENE
Starlink Y 2.6 18:00:11 10° WSW 18:03:07 89° N 18:04:09 36° ENE
Starlink AG 2.6 18:00:24 10° WSW 18:03:20 89° N 18:04:22 36° ENE
Starlink W 2.6 18:00:35 10° WSW 18:03:33 89° N 18:04:37 36° ENE
Starlink AJ 2.6 18:00:51 10° WSW 18:03:47 89° NW 18:04:48 37° ENE
Starlink AM 2.6 18:01:19 10° WSW 18:04:15 88° NNW 18:05:15 37° ENE
Cosmos 2219 3.2 17:58:57 10° SSW 18:04:28 60° ESE 18:09:13 14° NE
Starlink AP 2.6 18:01:32 10° WSW 18:04:28 88° N 18:05:28 38° ENE
Meteor 1-21 Rocket 4.3 17:59:10 10° S 18:04:39 58° E 18:10:15 10° NNE
Starlink AA 2.6 18:01:45 10° WSW 18:04:41 88° N 18:05:40 38° ENE
Starlink AF 2.6 18:01:58 10° WSW 18:04:55 88° N 18:05:53 38° ENE
Starlink AB 2.6 18:02:11 10° WSW 18:05:08 88° N 18:06:06 38° ENE
Starlink AN 2.6 18:02:25 10° WSW 18:05:21 88° N 18:06:18 39° ENE
SL-14 R/B 4.2 18:02:45 10° SSW 18:06:39 50° WNW 18:10:32 10° N
SJ 16-02 3.9 18:05:40 10° W 18:08:14 15° NW 18:10:49 10° N
Cosmos 1727 Rocket 4.2 18:02:26 10° N 18:08:20 43° ENE 18:14:11 10° SE
Cosmos 1825 Rocket 3.5 18:05:58 10° S 18:10:13 56° E 18:14:29 10° NNE
Cosmos 1607 4.1 18:05:57 10° SW 18:12:04 69° NW 18:17:11 16° NE
Cosmos 2297 Rocket 2.3 18:11:04 10° S 18:16:32 53° ESE 18:20:19 20° NE
USA 267 3.3 18:12:10 21° ENE 18:16:52 76° NNW 18:23:24 10° WSW
Timation 2 Rocket 4.4 18:14:12 10° SW 18:20:17 63° NW 18:26:32 11° NNE
Meteor 2-17 Rocket 4.5 18:15:08 10° SSW 18:21:17 84° W 18:27:28 10° N
Starlink T 2.7 18:18:31 10° W 18:21:34 79° N 18:22:00 61° ENE
SL-8 Rocket 4.0 18:15:38 10° S 18:21:51 64° E 18:28:04 10° NNE
Iridium 96 4.2 18:22:58 44° S 18:22:58 44° S 18:24:45 10° S
Starlink N 2.7 18:20:00 10° W 18:23:02 79° N 18:23:25 63° ENE
Starlink Q 2.6 18:21:45 10° W 18:24:47 78° N 18:25:06 66° NE
SKYMED 2 3.5 18:20:54 10° NNE 18:25:18 90° SE 18:29:39 10° SSW
Starlink P 2.6 18:23:19 10° W 18:26:21 77° N 18:26:36 69° NE
Cosmos 2341 Rocket 4.0 18:20:39 10° S 18:27:02 89° E 18:33:25 10° N
USA 116 3.8 18:27:57 39° SE 18:27:57 39° SE 18:30:15 10° S
Starlink U 2.6 18:24:52 10° W 18:27:55 77° N 18:28:06 71° NE
Starlink AR 2.8 18:26:15 10° W 18:28:31 60° WNW 18:28:31 60° WNW
Cosmos 2227 Rocket 2.2 18:23:29 10° SSW 18:29:01 60° ESE 18:32:18 25° NE
Starlink B 2.7 18:26:27 10° W 18:29:30 76° N 18:29:38 73° NNE
NOAA 11 4.2 18:25:12 10° SSE 18:30:43 90° WSW 18:36:15 10° NNW
Ariane Rocket 3.1 18:26:36 10° SE 18:31:28 50° ENE 18:36:23 10° N
Cosmos 1939 Rocket 2.7 18:31:36 10° SSE 18:35:31 90° WSW 18:39:32 10° NNW
Cosmos 2221 4.1 18:32:13 10° N 18:33:55 20° NNE 18:33:55 20° NNE
Starlink D 2.9 18:34:46 10° W 18:37:41 71° NW 18:37:41 71° NW
Starlink S 3.0 18:36:04 10° W 18:38:53 68° NW 18:38:53 68° NW
ARGOS 3.8 18:40:06 34° NE 18:40:06 34° NE 18:44:38 10° N
Starlink C 3.1 18:38:02 10° W 18:40:49 66° NW 18:40:49 66° NW
Meteor 2-10 Rocket 3.7 18:36:23 10° NNW 18:41:48 75° W 18:46:56 10° S
Cosmos 1943 3.8 18:37:25 10° NNW 18:42:32 34° NE 18:42:49 34° NE
Starlink E 3.1 18:39:42 10° W 18:42:26 63° WNW 18:42:26 63° WNW
Cosmos-2242 3.8 18:38:48 10° NNW 18:43:02 54° W 18:47:14 10° S
Starlink J 3.2 18:41:22 10° W 18:44:02 60° WNW 18:44:02 60° WNW
Cosmos 1703 3.1 18:41:31 10° S 18:45:27 67° E 18:45:38 66° ENE
Starlink V 3.3 18:43:01 10° W 18:45:37 57° WNW 18:45:37 57° WNW
YAOGAN 1 3.3 18:42:39 10° S 18:46:54 55° W 18:51:10 10° NNW
Starlink H 3.5 18:44:41 10° W 18:47:14 54° WNW 18:47:14 54° WNW
Starlink F 3.6 18:46:23 10° W 18:48:51 52° WNW 18:48:51 52° WNW
Starlink G 3.7 18:48:03 10° W 18:50:28 49° WNW 18:50:28 49° WNW
H-2A R/B 2.5 18:52:44 41° NE 18:52:44 41° NE 18:56:49 10° N
Cosmos 44 3.4 18:48:10 10° SSW 18:52:11 47° SE 18:52:11 47° SE
Starlink L 3.8 18:49:44 10° W 18:52:05 47° WNW 18:52:05 47° WNW
Starlink A 3.9 18:51:25 10° W 18:53:43 45° WNW 18:53:43 45° WNW
Starlink R 4.0 18:53:07 10° W 18:55:21 42° WNW 18:55:21 42° WNW
Cosmos 2251 Rocket 3.6 18:50:59 10° NNW 18:56:17 79° WSW 19:01:36 10° SSE
Cosmos 2218 Rocket 4.0 18:50:41 10° S 18:57:02 89° W 19:03:30 10° N
SL-08 R/B 4.4 18:51:05 10° S 18:57:19 66° E 19:03:41 10° NNE
Starlink K 4.1 18:54:47 10° W 18:56:57 40° WNW 18:56:57 40° WNW
Starlink M 4.2 18:56:26 10° W 18:58:32 39° WNW 18:58:32 39° WNW
DMSP B5D1-3 4.3 18:56:48 22° NNE 19:00:10 80° ESE 19:05:17 10° SSW
Cosmos 864 Rocket 4.4 18:54:11 10° S 19:00:19 89° E 19:06:30 10° N
ATLAS CENTAUR R/B 1.2 18:57:22 10° NW 19:01:19 79° NW 19:01:19 79° NW
ISS -1.7 18:59:43 10° SW 19:01:16 22° SSW 19:01:16 22° SSW
CZ-4 R/B 3.6 19:03:51 10° SSW 19:07:20 27° W 19:10:55 10° NW
Cosmos 2082 Rocket 4.4 19:11:35 10° N 19:12:59 11° N 19:13:45 11° NNE
COSMO-SKYMED 1 4.2 19:09:19 10° N 19:13:16 34° WNW 19:17:10 10° SW
Cosmos 1842 Rocket 3.7 19:14:52 10° NNW 19:18:59 70° NW 19:18:59 70° NW
CZ-2C R/B 3.6 19:23:28 48° NNE 19:23:28 48° NNE 19:27:44 10° N
Cosmos 1356 Rocket 4.2 19:21:54 10° NNW 19:25:47 48° W 19:25:52 48° W
Cosmos 1000 Rocket 4.3 19:20:23 10° N 19:26:36 83° ENE 19:28:48 43° SSE
ADEOS Rocket 3.1 19:22:52 10° NNE 19:29:20 88° E 19:36:33 10° SSW
Meteor 1-27 4.4 19:25:27 10° NNW 19:30:59 68° W 19:35:58 13° S
Meteor 2-2 Rocket 4.3 19:26:41 10° NNW 19:32:46 90° SE 19:33:56 61° SSE
ATLAS 5 CENTAUR R/B 3.6 19:31:35 10° WNW 19:35:26 24° N 19:35:26 24° N
Meteor 1-11 4.3 19:31:11 10° SSW 19:36:47 73° WNW 19:38:45 41° N
SL-16 R/B 3.7 19:34:12 10° NW 19:39:18 35° WSW 19:44:22 10° S
NOSS 3-3 (A) 4.4 19:32:28 10° NW 19:39:38 66° NE 19:40:14 64° ENE
NOSS 3-3 (C) 4.4 19:32:34 10° NW 19:39:44 66° NE 19:40:19 64° ENE
Cosmos 407 Rocket 4.4 19:42:17 10° NNW 19:45:41 40° NNW 19:45:41 40° NNW
Cosmos 2082 4.0 19:45:15 10° SW 19:50:48 62° NW 19:50:54 62° NW
Cosmos 1603 4.0 19:46:19 10° NNW 19:51:04 62° NW 19:51:04 62° NW
USA 267 3.5 19:59:31 58° N 19:59:36 58° N 20:05:59 10° WNW
Cosmos 2297 Rocket 3.5 19:55:38 10° WSW 20:00:50 36° NW 20:02:09 32° NNW
Cosmos 2227 Rocket 3.6 20:08:20 10° WSW 20:13:26 33° NW 20:14:11 32° NNW
ARGOS 4.5 20:21:35 36° NW 20:21:35 36° NW 20:25:10 10° NNW
H-2A R/B 3.9 20:33:20 25° WNW 20:33:20 25° WNW 20:36:07 10° NNW
